sat.trackr.live / text

‹ back to catalog

STARLINK-5899

NORAD 55949 · 2023-037AM

PAYLOAD ACTIVE UNKNOWN

§ Identity

Operator
Country
US
Launch date
2023-03-17
Launch site
AFWTR
Launch vehicle
Mass (kg)
RCS (m²)

Purposes: comms

External: N2YO · Heavens-Above · Gunter

§ Orbital elements

Epoch: 2026-05-25T02:14:19.929408Z

Period
96.11 min
Inclination
70.0003°
Eccentricity
0.0002964
Mean motion
14.98331524 rev/d
Perigee alt
570.0 km
Apogee alt
574.1 km
Semi-major
6,950.2 km
B*
7.5170e-6
RAAN
71.9817°
Arg perigee
268.8499°
Mean anomaly
91.2321°
Rev number
17,591

§ Raw data

STARLINK-58991 55949U 23037AM  26145.09328622 -.00000003  00000+0  75170-5 0  99952 55949  70.0003  71.9817 0002964 268.8499  91.2321 14.98331524175915

JSON: /api/v1/satellites/55949 · /tle

For live sub-satellite position, see the globe view (requires WebGL).

§ Visibility from observer

Set your observer location to see the next 7 days of passes ≥ 10°. The values pass through the URL so the page stays shareable.

No JS? Fill the form by hand. The geolocation button needs JavaScript.